Pensacola, FL

3:38 PM CST on February 20, 2017 (GMT -0600)
Pensacola Regional

Weather History for KPNS - February, 2017

Change the Weather History Date:

Friday, February 17, 2017

  Actual Average Record
Temperature  
Mean Temperature 56 °F 55 °F  
Max Temperature 68 °F 64 °F 81 °F (1975)
Min Temperature 44 °F 46 °F 21 °F (1900)
Degree Days  
Heating Degree Days 9 10  
Month to date heating degree days 74 198  
Since 1 July heating degree days 526 1209  
Cooling Degree Days 0 0  
Month to date cooling degree days 25 0  
Year to date cooling degree days 89 6  
Growing Degree Days 5 (Base 50)    
Moisture  
Dew Point 47 °F    
Average Humidity 67    
Maximum Humidity 89    
Minimum Humidity 45    
Precipitation  
Precipitation 0.05 in 0.18 in 3.71 in (1940)
Month to date precipitation 1.36 3.04  
Year to date precipitation 13.09 7.67  
Snow  
Snow 0.00 in 0.00 in - ()
Month to date snowfall 0.0 0.0  
Since 1 July snowfall 0.0 0.0  
Snow Depth 0.00 in    
Sea Level Pressure  
Sea Level Pressure 30.06 in    
Wind  
Wind Speed 5 mph (SSE)    
Max Wind Speed 14 mph    
Max Gust Speed 21 mph    
Visibility 10 miles    
Events Rain    
T = Trace of Precipitation, MM = Missing Value Source: NWS Daily Summary

Daily Weather History Graph

Daily Weather History Graph

Search for Another Location

Airport or City:

Trip Planner

Search our weather history database for the weather conditions in past years. The results will help you decide how hot, cold, wet, or windy it might be!

Date:

Astronomy

Feb. 17, 2017 Rise Set
Actual Time 6:27 AM CST 5:38 PM CST
Civil Twilight 6:02 AM CST 6:03 PM CST
Nautical Twilight 5:34 AM CST 6:31 PM CST
Astronomical Twilight 5:06 AM CST 6:59 PM CST
Moon 11:58 PM CST (2/17) 10:31 AM CST (2/17)
Length of Visible Light 12h 00m
Length of Day
11h 11m
Waning Gibbous, 60% of the Moon is Illuminated
Feb 17
Waning Gibbous
Feb 18
Last Quarter
Feb 26
New
Mar 5
First Quarter
Mar 12
Full

Hourly Weather History & Observations

Time (CST) Temp. Windchill Dew Point Humidity Pressure Visibility Wind Dir Wind Speed Gust Speed Precip Events Conditions
12:53 AM 48.0 °F - 41.0 °F 77% 30.10 in 10.0 mi NW 4.6 mph - N/A   Clear
1:53 AM 48.9 °F - 43.0 °F 80% 30.08 in 10.0 mi NW 4.6 mph - N/A   Clear
2:53 AM 46.0 °F 43.9 °F 42.1 °F 86% 30.08 in 10.0 mi North 4.6 mph - N/A   Clear
3:53 AM 46.9 °F - 42.1 °F 83% 30.08 in 10.0 mi North 4.6 mph - N/A   Clear
4:53 AM 46.9 °F - 42.1 °F 83% 30.08 in 10.0 mi North 4.6 mph - N/A   Clear
5:53 AM 45.0 °F - 41.0 °F 86% 30.09 in 10.0 mi Calm Calm - N/A   Clear
6:53 AM 44.1 °F - 39.9 °F 85% 30.11 in 10.0 mi Calm Calm - N/A   Clear
7:53 AM 54.0 °F - 46.9 °F 77% 30.12 in 10.0 mi Calm Calm - N/A   Clear
8:53 AM 61.0 °F - 41.0 °F 48% 30.12 in 10.0 mi Calm Calm - N/A   Clear
9:53 AM 63.0 °F - 43.0 °F 48% 30.14 in 10.0 mi WSW 5.8 mph - N/A   Clear
10:53 AM 66.0 °F - 45.0 °F 47% 30.12 in 10.0 mi South 8.1 mph - N/A   Clear
11:53 AM 64.0 °F - 45.0 °F 50% 30.10 in 10.0 mi South 6.9 mph - N/A   Clear
12:53 PM 66.0 °F - 46.0 °F 48% 30.07 in 10.0 mi SSE 9.2 mph - N/A   Clear
1:53 PM 66.0 °F - 46.9 °F 50% 30.06 in 10.0 mi South 10.4 mph - N/A   Clear
2:53 PM 66.0 °F - 48.0 °F 52% 30.05 in 10.0 mi South 9.2 mph - N/A   Clear
3:53 PM 63.0 °F - 48.9 °F 60% 30.02 in 10.0 mi SSE 8.1 mph - N/A   Clear
4:53 PM 63.0 °F - 48.9 °F 60% 30.04 in 10.0 mi South 6.9 mph - N/A   Clear
5:53 PM 60.1 °F - 50.0 °F 69% 30.03 in 10.0 mi SE 5.8 mph - N/A   Partly Cloudy
6:53 PM 61.0 °F - 51.1 °F 70% 30.01 in 10.0 mi ESE 4.6 mph - N/A   Clear
7:53 PM 61.0 °F - 52.0 °F 72% 30.00 in 10.0 mi ESE 8.1 mph - N/A   Scattered Clouds
8:53 PM 63.0 °F - 51.1 °F 65% 29.99 in 10.0 mi SE 8.1 mph - N/A   Mostly Cloudy
9:53 PM 63.0 °F - 51.1 °F 65% 30.01 in 10.0 mi South 8.1 mph - N/A   Mostly Cloudy
10:53 PM 62.1 °F - 55.0 °F 78% 29.98 in 10.0 mi SE 5.8 mph - 0.03 in   Mostly Cloudy
11:53 PM 60.1 °F - 57.0 °F 90% 29.99 in 9.0 mi Calm Calm - 0.01 in Rain Light Rain